Location: Unspecified
(35.7250°N, 0.0000°E)
Time: 03:01:00
(UTC+00:00)

SR - Pass Details

Date: 21 June 2019
Orbit: 575 x 881 km, 66.7° (Epoch: 12 October)

Event Time Altitude Azimuth Distance (km) Brightness Sun altitude
Exits shadow 03:56:21 11° 225° (SW) 1,788 ? -8.9°
Maximum altitude 04:00:10 48° 300° (WNW) 752 ? -8.3°
Drops below altitude 10° 04:04:16 10° 16° (NNE) 1,902 ? -7.6°
Sets 04:06:35 0° 22° (NNE) 2,826 ? -7.3°
